Flag for Germany Weather past 2 weeks in Kamp-Lintfort, North Rhine-Westphalia, Germany

Now
66 °F

Scattered clouds.


Feels Like: 66 °F
Forecast: 49 / 65 °F
Wind: 1 mph from Northwest

Location: Duesseldorf

Current Time: May 22, 2015 at 7:37:18 PM

Latest Report: May 22, 2015 at 7:00 PM


Visibility: 22 mi

Pressure: 30.20 "Hg

Humidity: 43%

Dew point: 43 °F

Location of Kamp-LintfortLocation

Historic Weather in Kamp-Lintfort — Graph

°F

Kamp-Lintfort temperature yesterday

Maximum temperature yesterday: 63 °F (at 7:00 PM)
Minimum temperature yesterday: 38 °F (at 4:00 AM)
Average temperature yesterday: 52 °F

Past Weeks' High & Low Weather Summary

 TemperatureHumidityPressure
High78 °F (May 11, 6:00 PM)99% (May 17, 2:00 AM)30.35 "Hg (May 17, 2:00 AM)
Low38 °F (May 21, 4:00 AM)36% (May 13, 4:00 PM)29.65 "Hg (May 18, 8:00 PM)
Average57 °F64%30.07 "Hg
* Reported May 7 6:00 PM — May 22 6:00 PM, Kamp-Lintfort, Weather by CustomWeather, © 2015

Note: Actual official high and low records may vary slightly from our data, if they occured in-between our weather recording intervals... More about our weather records

Advertising

Kamp-Lintfort weather history for previous 24 hours

 ConditionsComfort  
Time TempWeatherWind HumidityBarometerVisibility
6:00 PM
Fri, May 22
67 °FScattered clouds.2 mph41%30.21 "Hg22 mi
5:00 PM69 °FScattered clouds.2 mph39%30.22 "Hg22 mi
4:00 PM69 °FPartly sunny.2 mph36%30.24 "Hg22 mi
3:00 PM68 °FPartly sunny.1 mph40%30.26 "Hg22 mi
2:00 PM67 °FPartly sunny.2 mph41%30.27 "Hg22 mi
1:00 PM64 °FPartly sunny.2 mph41%30.30 "Hg22 mi
12:00 PM64 °FPartly sunny.2 mph42%30.31 "Hg22 mi
10:00 AM59 °FOvercast.1 mph55%30.34 "Hg22 mi
9:00 AM57 °FOvercast.1 mph60%30.34 "Hg22 mi
8:00 AM54 °FPartly sunny.2 mph72%30.34 "Hg25 mi
7:00 AM49 °FOvercast.1 mph85%30.34 "Hg25 mi
6:00 AM46 °FPartly sunny.1 mph92%30.33 "Hg19 mi
4:00 AM45 °FOvercast.1 mph91%30.34 "Hg19 mi
3:00 AM47 °FPassing clouds.1 mph87%30.34 "Hg19 mi
2:00 AM47 °FOvercast.1 mph87%30.34 "Hg19 mi
1:00 AM49 °FPassing clouds.1 mph80%30.34 "Hg19 mi
12:00 AM55 °FPassing clouds.2 mph62%30.34 "Hg19 mi
10:00 PM
Thu, May 21
57 °FPassing clouds.2 mph62%30.32 "Hg16 mi
9:00 PM58 °FPartly sunny.1 mph62%30.29 "Hg19 mi
8:00 PM60 °FPartly sunny.3 mph52%30.29 "Hg17 mi
7:00 PM63 °FPartly sunny.1 mph46%30.28 "Hg17 mi
Weather by CustomWeather, © 2015

See weather overviewHow to use our weather pages